Location: Newark
(53.5850°N, 0.9260°W)
Time: 14:45:45
(UTC+00:00)

ISS - Visible Passes

Search period start: 27 September 2020 00:00
Search period end: 07 October 2020 00:00
Orbit: 419 x 421 km, 51.6° (Epoch: 28 September)

Date Brightness Start Highest point End Pass type
(mag) Time Alt. Az. Time Alt. Az. Time Alt. Az.
27 Sep -3.6 18:59:10 10° W 19:02:31 63° S 19:04:38 21° ESE visible
27 Sep -1.7 20:35:57 10° W 20:37:36 24° WSW 20:37:36 24° WSW visible
28 Sep -3.3 19:48:42 10° W 19:51:58 46° SSW 19:52:07 46° S visible
29 Sep -3.4 19:01:28 10° W 19:04:48 54° S 19:06:40 23° ESE visible
29 Sep -1.2 20:38:29 10° W 20:39:38 16° WSW 20:39:38 16° WSW visible
30 Sep -3.4 18:14:15 10° W 18:17:36 61° S 18:20:56 10° ESE visible
30 Sep -2.4 19:51:06 10° W 19:54:06 29° SSW 19:54:11 29° SSW visible
01 Oct -2.7 19:03:48 10° W 19:06:57 37° SSW 19:08:46 20° SE visible
02 Oct -3.0 18:16:32 10° W 18:19:47 46° SSW 18:23:02 10° ESE visible
02 Oct -1.5 19:53:50 10° WSW 19:56:04 17° SW 19:56:22 16° SSW visible
03 Oct -1.7 19:06:16 10° W 19:08:58 22° SSW 19:11:03 13° SSE visible
04 Oct -2.1 18:18:50 10° W 18:21:49 29° SSW 18:24:48 10° SE visible
05 Oct -0.9 19:09:29 10° WSW 19:10:47 12° SW 19:12:03 10° SSW visible
06 Oct -1.1 18:21:29 10° WSW 18:23:41 16° SW 18:25:53 10° S visible
